Flag for Kuwait Weather past 2 weeks in Kuwait City, Kuwait

Now
111 °F

Clear.


Feels Like: 107 °F
Forecast: 93 / 115 °F
Wind: 10 mph from Northwest

Location: Kuwait International Airport

Current Time: Jul 25, 2014 at 7:33:21 PM

Latest Report: Jul 25, 2014 at 7:00 PM


Visibility: 10 mi

Pressure: 29.45 "Hg

Humidity: 11%

Dew point: 46 °F

Location of Kuwait CityLocation

Historic Weather in Kuwait City — Graph

°F

Kuwait City temperature yesterday

Maximum temperature yesterday: 115 °F (at 2:00 PM)
Minimum temperature yesterday: 88 °F (at 4:00 AM)
Average temperature yesterday: 102 °F

Past Weeks' High & Low Weather Summary

 TemperatureHumidityPressure
High120 °F (Jul 17, 2:00 PM)30% (Jul 21, 5:00 AM)29.56 "Hg (Jul 21, 5:00 AM)
Low82 °F (Jul 16, 4:00 AM)6% (Jul 13, 3:00 PM)29.36 "Hg (Jul 18, 4:00 PM)
Average104 °F13%29.48 "Hg
* Reported Jul 10 6:00 PM — Jul 25 6:00 PM, Kuwait City, Weather by CustomWeather, © 2014

Note: Actual official high and low records may vary slightly from our data, if they occured in-between our weather recording intervals... More about our weather records

Advertising

Kuwait City weather history for previous 24 hours

 ConditionsComfort  
Time TempWeatherWind HumidityBarometerVisibility
6:00 PM
Jul 25
113 °FSunny.15 mph11%29.42 "Hg10 mi
5:00 PM117 °FSunny.14 mph10%29.42 "Hg10 mi
4:00 PM117 °FSunny.17 mph10%29.42 "Hg10 mi
3:00 PM117 °FSunny.15 mph10%29.42 "Hg10 mi
2:00 PM117 °FSunny.14 mph10%29.42 "Hg10 mi
1:00 PM113 °FSunny.15 mph11%29.45 "Hg10 mi
12:00 PM113 °FSunny.17 mph12%29.45 "Hg10 mi
11:00 AM113 °FSunny.17 mph11%29.47 "Hg10 mi
10:00 AM109 °FSunny.20 mph12%29.47 "Hg10 mi
9:00 AM108 °FSunny.17 mph13%29.47 "Hg10 mi
8:00 AM104 °FSunny.15 mph13%29.47 "Hg10 mi
7:00 AM100 °FSunny.7 mph15%29.50 "Hg10 mi
6:00 AM93 °FSunny.6 mph19%29.47 "Hg10 mi
5:00 AM95 °FClear.9 mph18%29.47 "Hg10 mi
4:00 AM99 °FClear.12 mph17%29.45 "Hg10 mi
3:00 AM91 °FClear.7 mph21%29.45 "Hg10 mi
2:00 AM93 °FClear.8 mph20%29.45 "Hg10 mi
1:00 AM97 °FClear.9 mph18%29.45 "Hg10 mi
12:00 AM95 °FClear.6 mph19%29.45 "Hg10 mi
11:00 PM
Jul 24
97 °FClear.6 mph18%29.45 "Hg10 mi
10:00 PM104 °FClear.10 mph15%29.45 "Hg10 mi
9:00 PM106 °FClear.12 mph13%29.45 "Hg10 mi
8:00 PM108 °FClear.14 mph14%29.42 "Hg10 mi
7:00 PM109 °FClear.14 mph13%29.42 "Hg10 mi
Weather by CustomWeather, © 2014

See weather overviewHow to use our weather pages